When you browse on this site, cookies collect data to enhance your experience and personalize the content and advertising you see.
Visit our Privacy Policy to learn more. By continuing to use the site, you agree to this use of cookies and data.
  • En España
  • Lista de países
  • Para 7 días
  • Temperatura del agua
  • El tiempo en el mapa
  • Informadores
  • user-avatar
    Iniciar sesión

    Tiempo cada hora Shostka

    Hoy, 29 Mayo, Viernes

    Tiempo Temperatura Precipitaciones Viento Presión Humedad
    00:00 +14°C° 0.1 mm 6 mps 744 mmHg 95%
    01:00 +14°C° 0.1 mm 5 mps 744 mmHg 96%
    02:00 +13°C° 0 mm 3 mps 744 mmHg 93%
    03:00 +14°C° 0 mm 2 mps 744 mmHg 95%
    04:00 +14°C° 0 mm 2 mps 744 mmHg 96%
    05:00 +14°C° 0 mm 1 mps 743 mmHg 97%
    06:00 +16°C° 0 mm 2 mps 743 mmHg 92%
    07:00 +17°C° 0 mm 2 mps 744 mmHg 88%
    08:00 +19°C° 0 mm 2 mps 744 mmHg 83%
    09:00 +20°C° 0.3 mm 3 mps 744 mmHg 82%
    10:00 +21°C° 0.3 mm 3 mps 743 mmHg 80%
    11:00 +21°C° 0.3 mm 4 mps 743 mmHg 79%
    12:00 +22°C° 0.4 mm 4 mps 743 mmHg 76%
    13:00 +22°C° 0.4 mm 4 mps 743 mmHg 74%
    14:00 +24°C° 0.4 mm 3 mps 743 mmHg 71%
    15:00 +22°C° 0.7 mm 3 mps 742 mmHg 76%
    16:00 +21°C° 0.7 mm 3 mps 742 mmHg 80%
    17:00 +20°C° 0.7 mm 2 mps 742 mmHg 84%
    18:00 +19°C° 1 mm 2 mps 741 mmHg 87%
    19:00 +18°C° 1 mm 2 mps 741 mmHg 90%
    20:00 +18°C° 1 mm 1 mps 741 mmHg 93%
    21:00 +18°C° 1.1 mm 1 mps 741 mmHg 94%
    22:00 +17°C° 1.1 mm 2 mps 741 mmHg 95%
    23:00 +16°C° 1.1 mm 2 mps 740 mmHg 97%

    Mañana, 30 Mayo, Sábado

    Tiempo Temperatura Precipitaciones Viento Presión Humedad
    00:00 +16°C° 0.4 mm 2 mps 740 mmHg 97%
    01:00 +16°C° 0.4 mm 2 mps 740 mmHg 97%
    02:00 +16°C° 0.4 mm 2 mps 740 mmHg 97%
    03:00 +16°C° 0 mm 2 mps 740 mmHg 97%
    04:00 +16°C° 0 mm 2 mps 739 mmHg 97%
    05:00 +16°C° 0 mm 2 mps 739 mmHg 96%
    06:00 +17°C° 0.1 mm 3 mps 739 mmHg 95%
    07:00 +18°C° 0.1 mm 3 mps 739 mmHg 93%
    08:00 +19°C° 0.1 mm 3 mps 738 mmHg 92%
    09:00 +18°C° 3.5 mm 4 mps 738 mmHg 93%
    10:00 +18°C° 3.5 mm 4 mps 738 mmHg 94%
    11:00 +17°C° 3.5 mm 5 mps 737 mmHg 95%
    12:00 +16°C° 3.8 mm 5 mps 737 mmHg 95%
    13:00 +16°C° 3.8 mm 5 mps 737 mmHg 96%
    14:00 +15°C° 3.8 mm 5 mps 737 mmHg 96%
    15:00 +15°C° 0.7 mm 5 mps 736 mmHg 95%
    16:00 +15°C° 0.7 mm 5 mps 736 mmHg 94%
    17:00 +14°C° 0.7 mm 5 mps 736 mmHg 94%
    18:00 +14°C° 0 mm 4 mps 736 mmHg 94%
    19:00 +14°C° 0 mm 4 mps 737 mmHg 94%
    20:00 +14°C° 0 mm 3 mps 737 mmHg 94%
    21:00 +13°C° 0 mm 3 mps 737 mmHg 95%
    22:00 +13°C° 0 mm 3 mps 738 mmHg 95%
    23:00 +12°C° 0 mm 3 mps 738 mmHg 96%

    Pasado mañana, 31 Mayo, Domingo

    Tiempo Temperatura Precipitaciones Viento Presión Humedad
    00:00 +12°C° 0 mm 3 mps 738 mmHg 96%
    01:00 +12°C° 0 mm 3 mps 738 mmHg 97%
    02:00 +11°C° 0 mm 3 mps 739 mmHg 97%
    03:00 +12°C° 0 mm 3 mps 739 mmHg 97%
    04:00 +12°C° 0 mm 3 mps 739 mmHg 96%
    05:00 +12°C° 0 mm 3 mps 739 mmHg 96%
    06:00 +12°C° 0.1 mm 3 mps 740 mmHg 95%
    07:00 +12°C° 0.1 mm 4 mps 740 mmHg 95%
    08:00 +12°C° 0.1 mm 4 mps 740 mmHg 94%
    09:00 +12°C° 0 mm 4 mps 741 mmHg 92%
    10:00 +13°C° 0 mm 4 mps 741 mmHg 90%
    11:00 +13°C° 0 mm 4 mps 742 mmHg 88%
    12:00 +14°C° 0 mm 3 mps 742 mmHg 86%
    13:00 +14°C° 0 mm 3 mps 742 mmHg 84%
    14:00 +16°C° 0 mm 3 mps 742 mmHg 82%
    15:00 +16°C° 0 mm 2 mps 742 mmHg 80%
    16:00 +16°C° 0 mm 2 mps 742 mmHg 78%
    17:00 +16°C° 0 mm 1 mps 743 mmHg 76%
    18:00 +16°C° 0 mm 1 mps 743 mmHg 79%
    19:00 +14°C° 0 mm 0 mps 743 mmHg 82%
    20:00 +13°C° 0 mm 0 mps 743 mmHg 85%
    21:00 +13°C° 0.1 mm 1 mps 743 mmHg 87%
    22:00 +13°C° 0.1 mm 2 mps 744 mmHg 89%
    23:00 +12°C° 0.1 mm 3 mps 744 mmHg 91%

    1 Junio, Lunes

    Tiempo Temperatura Precipitaciones Viento Presión Humedad
    00:00 +11°C° 0.2 mm 4 mps 744 mmHg 92%
    01:00 +11°C° 0.2 mm 4 mps 744 mmHg 93%
    02:00 +9°C° 0.2 mm 5 mps 744 mmHg 93%
    03:00 +9°C° 0.2 mm 5 mps 744 mmHg 93%
    04:00 +9°C° 0.2 mm 5 mps 744 mmHg 93%
    05:00 +9°C° 0.2 mm 5 mps 745 mmHg 93%
    06:00 +9°C° 0.1 mm 5 mps 745 mmHg 91%
    07:00 +10°C° 0.1 mm 6 mps 745 mmHg 89%
    08:00 +10°C° 0.1 mm 6 mps 746 mmHg 87%
    09:00 +11°C° 0.1 mm 6 mps 746 mmHg 84%
    10:00 +11°C° 0.1 mm 6 mps 746 mmHg 81%
    11:00 +13°C° 0.1 mm 6 mps 747 mmHg 78%
    12:00 +13°C° 0.2 mm 6 mps 747 mmHg 76%
    13:00 +13°C° 0.2 mm 5 mps 747 mmHg 73%
    14:00 +14°C° 0.2 mm 5 mps 747 mmHg 71%
    15:00 +13°C° 0.1 mm 5 mps 747 mmHg 71%
    16:00 +13°C° 0.1 mm 5 mps 747 mmHg 71%
    17:00 +13°C° 0.1 mm 5 mps 747 mmHg 71%
    18:00 +12°C° 0 mm 5 mps 747 mmHg 74%
    19:00 +10°C° 0 mm 4 mps 748 mmHg 77%
    20:00 +7°C° 0 mm 4 mps 748 mmHg 80%
    21:00 +8°C° 0 mm 3 mps 748 mmHg 82%
    22:00 +7°C° 0 mm 3 mps 748 mmHg 83%
    23:00 +5°C° 0 mm 3 mps 748 mmHg 85%

    2 Junio, Martes

    Tiempo Temperatura Precipitaciones Viento Presión Humedad
    00:00 +5°C° 0 mm 3 mps 748 mmHg 86%
    01:00 +4°C° 0 mm 3 mps 748 mmHg 87%
    02:00 +4°C° 0 mm 3 mps 747 mmHg 88%
    03:00 +4°C° 0 mm 3 mps 748 mmHg 88%
    04:00 +4°C° 0 mm 4 mps 748 mmHg 89%
    05:00 +4°C° 0 mm 4 mps 748 mmHg 89%
    06:00 +6°C° 0 mm 4 mps 748 mmHg 83%
    07:00 +8°C° 0 mm 5 mps 748 mmHg 78%
    08:00 +10°C° 0 mm 5 mps 748 mmHg 72%
    09:00 +12°C° 0.1 mm 5 mps 748 mmHg 70%
    10:00 +12°C° 0.1 mm 5 mps 748 mmHg 68%
    11:00 +13°C° 0.1 mm 5 mps 748 mmHg 66%
    12:00 +14°C° 0.2 mm 5 mps 747 mmHg 66%
    13:00 +14°C° 0.2 mm 5 mps 747 mmHg 66%
    14:00 +14°C° 0.2 mm 5 mps 747 mmHg 67%
    15:00 +14°C° 0.2 mm 5 mps 747 mmHg 67%
    16:00 +14°C° 0.2 mm 4 mps 747 mmHg 68%
    17:00 +14°C° 0.2 mm 4 mps 746 mmHg 69%
    18:00 +12°C° 0.1 mm 3 mps 746 mmHg 75%
    19:00 +11°C° 0.1 mm 3 mps 746 mmHg 81%
    20:00 +9°C° 0.1 mm 3 mps 746 mmHg 86%
    21:00 +9°C° 0 mm 3 mps 747 mmHg 88%
    22:00 +8°C° 0 mm 2 mps 747 mmHg 90%
    23:00 +7°C° 0 mm 2 mps 747 mmHg 92%

    3 Junio, Miércoles

    Tiempo Temperatura Precipitaciones Viento Presión Humedad
    00:00 +7°C° 0 mm 2 mps 747 mmHg 93%
    01:00 +6°C° 0 mm 2 mps 746 mmHg 93%
    02:00 +6°C° 0 mm 2 mps 746 mmHg 94%
    03:00 +6°C° 0 mm 2 mps 746 mmHg 93%
    04:00 +6°C° 0 mm 2 mps 746 mmHg 93%
    05:00 +7°C° 0 mm 2 mps 746 mmHg 93%
    06:00 +8°C° 0 mm 2 mps 746 mmHg 87%
    07:00 +10°C° 0 mm 2 mps 746 mmHg 81%
    08:00 +13°C° 0 mm 2 mps 746 mmHg 75%
    09:00 +14°C° 0.1 mm 2 mps 746 mmHg 69%
    10:00 +15°C° 0.1 mm 2 mps 746 mmHg 64%
    11:00 +16°C° 0.1 mm 3 mps 746 mmHg 58%
    12:00 +17°C° 0.1 mm 2 mps 746 mmHg 57%
    13:00 +17°C° 0.1 mm 2 mps 746 mmHg 56%
    14:00 +17°C° 0.1 mm 2 mps 746 mmHg 54%
    15:00 +17°C° 0.2 mm 2 mps 746 mmHg 57%
    16:00 +17°C° 0.2 mm 2 mps 745 mmHg 60%
    17:00 +17°C° 0.2 mm 2 mps 745 mmHg 63%
    18:00 +15°C° 0.1 mm 1 mps 745 mmHg 70%
    19:00 +13°C° 0.1 mm 1 mps 745 mmHg 76%
    20:00 +11°C° 0.1 mm 1 mps 745 mmHg 83%
    21:00 +10°C° 0 mm 1 mps 746 mmHg 84%
    22:00 +10°C° 0 mm 1 mps 746 mmHg 85%
    23:00 +9°C° 0 mm 1 mps 746 mmHg 86%
    Mostrar más